Location: Rotheul
(50.2849°N, 11.2349°E)
Time: 07:59:09
(UTC+02:00)

ISS - Pass Details

Date: 23 May 2018
Orbit: 402 x 407 km, 51.6° (Epoch: 23 May)

Event Time Altitude Azimuth Distance (km) Brightness Sun altitude
Rises 03:48:42 0° 284° (WNW) 2,320 -0.2 -11.2°
Reaches altitude 10° 03:51:05 10° 269° (W) 1,457 -1.4 -10.9°
Maximum altitude 03:53:39 22° 217° (SW) 946 -2.6 -10.7°
Drops below altitude 10° 03:56:13 10° 164° (SSE) 1,450 -1.4 -10.4°
Sets 03:58:35 0° 148° (SSE) 2,305 -0.2 -10.2°
